Location: Bemmer
(51.5498°N, 5.6249°E)
Time: 02:35:49
(UTC+00:00)

FALCON 9 DEB - Pass Details

Date: 03 March 2021
Orbit: 367 x 387 km, 53.0° (Epoch: 12 April)

Event Time Altitude Azimuth Distance (km) Brightness Sun altitude
Rises 17:53:52 0° 267° (W) 2,288 9.8 -5.8°
Reaches altitude 10° 17:55:57 10° 270° (W) 1,433 7.6 -6.1°
Maximum altitude 17:59:08 68° 354° (N) 428 3.1 -6.6°
Drops below altitude 10° 18:02:20 10° 78° (ENE) 1,430 5.1 -7.1°
Enters shadow 18:02:27 - 78° (ENE) 1,478 5.2 -7.1°
